User: anonymous   Login
Location: Ostrava
(49.8330°N, 18.2830°E)
Time: 21:42:13
(UTC+02:00)
Language:

Vanguard 2 Rocket - Orbit

View from above orbital plane
View from above orbital plane
View from above satellite
View from above satellite

Ground track
Ground track

The orbit data is extracted from the following two-line orbital elements,

1 00012U 59001B   15180.44927506  .00000374  00000-0  20161-3 0  9997
2 00012 032.9084 219.4113 1667756 256.3133 084.6999 11.43726177314623
Epoch (UTC): 29 June 2015 10:46:57
Eccentricity: 0.1667756
inclination: 32.9084°
perigee height: 555 km
apogee height: 3331 km
right ascension of ascending node: 219.4113°
argument of perigee: 256.3133°
revolutions per day: 11.43726177
mean anomaly at epoch: 84.6999°
orbit number at epoch: 31462

The dashed part of the orbit path shows where the satellite is in the earth's shadow,  

DLR